Location: N�rnberg
(49.4471°N, 11.0632°E)
Time: 21:21:02
(UTC+02:00)

VELOX 1 - Pass Details

Date: 19 April 2026
Orbit: 569 x 580 km, 98.3° (Epoch: 13 May)

Event Time Altitude Azimuth Distance (km) Brightness Sun altitude
Rises 02:21:21 0° 356° (N) 2,785 ? -27.7°
Maximum altitude 02:26:13 11° 304° (NW) 1,792 ? -27.4°
Enters shadow 02:26:16 11° 304° (WNW) 1,792 ? -27.4°
